Home   Weather   Lübbecke   Past weeks

Flag for Germany Past Weather in Lübbecke, North Rhine-Westphalia, Germany — Yesterday and Last 2 Weeks

Now
68 °F

Partly sunny.


Feels Like: 68 °F
Forecast: 57 / 69 °F
Wind: 20 mph from Southwest

Location: Bueckeburg

Current Time: Sep 28, 2016 at 2:01:52 PM

Latest Report: Sep 28, 2016 at 1:20 PM


Visibility: N/A

Pressure: 30.15 "Hg

Humidity: 64%

Dew Point: 55 °F

Location of LübbeckeLocation

Past Weather in Lübbecke — Graph

°F

Lübbecke Temperature Yesterday

Maximum temperature yesterday: 72 °F (at 3:20 PM)
Minimum temperature yesterday: 48 °F (at 7:20 AM)
Average temperature yesterday: 59 °F

High & Low Weather Summary for the Past Weeks

 TemperatureHumidityPressure
High91 °F (Sep 13, 3:20 PM)100% (Sep 17, 12:20 PM)30.30 "Hg (Sep 17, 12:20 PM)
Low46 °F (Sep 19, 5:20 AM)26% (Sep 13, 4:20 PM)29.86 "Hg (Sep 15, 4:20 PM)
Average63 °F68%30.08 "Hg
* Reported Sep 13 12:20 PM — Sep 28 12:20 PM, Lübbecke, Weather by CustomWeather, © 2016

Note: Actual official high and low records may vary slightly from our data, if they occured in-between our weather recording intervals... More about our weather records

Advertising

Lübbecke Weather History for the Previous 24 Hours

Scroll right to see more
 ConditionsComfort  
Time TempWeatherWind HumidityBarometerVisibility
12:20 PM
Wed, Sep 28
66 °FPartly sunny.17 mph64%30.18 "HgN/A
11:20 AM66 °FPartly sunny.18 mph64%30.18 "HgN/A
10:20 AM63 °FPartly sunny.15 mph68%30.18 "HgN/A
9:20 AM63 °FBroken clouds.15 mph59%30.18 "HgN/A
8:20 AM61 °FBroken clouds.16 mph59%30.18 "HgN/A
6:20 AM61 °FPassing clouds.15 mph59%30.18 "HgN/A
5:20 AM61 °FPassing clouds.15 mph59%30.18 "HgN/A
4:20 AM59 °FPassing clouds.10 mph68%30.21 "HgN/A
3:20 AM59 °FPassing clouds.12 mph72%30.21 "HgN/A
2:20 AM59 °FPassing clouds.7 mph68%30.24 "HgN/A
1:20 AM59 °FPassing clouds.9 mph72%30.24 "HgN/A
11:20 PM
Tue, Sep 27
59 °FPassing clouds.6 mph72%30.27 "HgN/A
10:20 PM57 °FPassing clouds.6 mph77%30.27 "HgN/A
9:20 PM59 °FPassing clouds.5 mph68%30.27 "HgN/A
8:20 PM59 °FPassing clouds.5 mph72%30.27 "HgN/A
7:20 PM64 °FPassing clouds.6 mph56%30.27 "HgN/A
6:20 PM70 °FScattered clouds.7 mph46%30.27 "HgN/A
5:20 PM72 °FScattered clouds.5 mph44%30.27 "HgN/A
4:20 PM72 °FPassing clouds.6 mph44%30.27 "HgN/A
3:20 PM72 °FPassing clouds.6 mph44%30.27 "HgN/A
2:20 PM70 °FPassing clouds.5 mph46%30.30 "HgN/A
Weather by CustomWeather, © 2016

See weather overviewHow to use our weather pages